Tokyo, Japan

8:57 AM JST on December 10, 2018 (GMT +0900)
Tokyo (Haneda) International

Weather History for RJTT - December, 2018

Change the Weather History Date:

Thursday, December 6, 2018

  Actual Average Record
Temperature  
Mean Temperature 52 °F -  
Max Temperature 57 °F 50 °F 64 °F (1996)
Min Temperature 48 °F 39 °F 37 °F (2014)
Degree Days  
Heating Degree Days 12    
Growing Degree Days 2 (Base 50)    
Moisture  
Dew Point 48 °F    
Average Humidity 87    
Maximum Humidity 100    
Minimum Humidity 67    
Precipitation  
Precipitation 0.00 in - - ()
Sea Level Pressure  
Sea Level Pressure 30.04 in    
Wind  
Wind Speed 12 mph ()    
Max Wind Speed 17 mph    
Max Gust Speed -    
Visibility 5.6 miles    
Events Rain    
Averages and records for this station are not official NWS values.
T = Trace of Precipitation, MM = Missing Value Source: Averaged Metar Reports

Daily Weather History Graph

Daily Weather History Graph

Search for Another Location

Airport or City:

Astronomy

Dec. 06, 2018 Rise Set
Actual Time 6:35 AM JST 4:27 PM JST
Civil Twilight 6:07 AM JST 4:55 PM JST
Nautical Twilight 5:35 AM JST 5:27 PM JST
Astronomical Twilight 5:05 AM JST 5:58 PM JST
Moon 5:07 AM JST (12/6) 3:55 PM JST (12/6)
Length of Visible Light 10h 48m
Length of Day
9h 51m
Waning Crescent, 1% of the Moon is Illuminated
Dec 6
Waning Crescent
Dec 7
New
Dec 15
First Quarter
Dec 23
Full
Dec 29
Last Quarter

Hourly Weather History & Observations

Time (JST) Temp. Dew Point Humidity Pressure Visibility Wind Dir Wind Speed Gust Speed Precip Events Conditions
12:00 AM 57.2 °F 48.2 °F 72% 30.21 in 6.2 mi North 13.8 mph - N/A   Mostly Cloudy
12:30 AM 57.2 °F 46.4 °F 67% 30.21 in 6.2 mi North 12.7 mph - N/A   Mostly Cloudy
1:00 AM 57.2 °F 46.4 °F 67% 30.21 in 6.2 mi NNE 15.0 mph - N/A   Mostly Cloudy
1:30 AM 57.2 °F 46.4 °F 67% 30.21 in 6.2 mi North 15.0 mph - N/A   Mostly Cloudy
2:00 AM 55.4 °F 46.4 °F 72% 30.21 in 6.2 mi North 17.3 mph - N/A   Mostly Cloudy
2:30 AM 55.4 °F 44.6 °F 67% 30.21 in 6.2 mi North 13.8 mph - N/A   Mostly Cloudy
3:00 AM 55.4 °F 44.6 °F 67% 30.21 in 6.2 mi North 15.0 mph - N/A   Mostly Cloudy
3:30 AM 55.4 °F 46.4 °F 72% 30.21 in 6.2 mi North 15.0 mph - N/A   Mostly Cloudy
4:00 AM 55.4 °F 46.4 °F 72% 30.18 in 6.2 mi North 16.1 mph - N/A Rain Light Rain
4:30 AM 55.4 °F 44.6 °F 67% 30.18 in 6.2 mi North 15.0 mph - N/A Rain Light Rain
5:00 AM 53.6 °F 46.4 °F 77% 30.18 in 6.2 mi North 11.5 mph - N/A Rain Light Rain
5:30 AM 51.8 °F 48.2 °F 88% 30.18 in 5.6 mi North 12.7 mph - N/A Rain Light Rain
5:40 AM 51.8 °F 48.2 °F 88% 30.18 in 6.2 mi North 11.5 mph - N/A Rain Rain
6:00 AM 50.0 °F 46.4 °F 87% 30.18 in 6.2 mi NNW 15.0 mph - N/A Rain Light Rain
6:30 AM 50.0 °F 46.4 °F 87% 30.18 in 6.2 mi NNW 17.3 mph - N/A Rain Light Rain
6:47 AM 50.0 °F 46.4 °F 87% 30.18 in 6.2 mi NNW 16.1 mph - N/A Rain Rain
7:00 AM 50.0 °F 48.2 °F 94% 30.15 in 5.0 mi NNW 16.1 mph - N/A Rain Rain
7:22 AM 48.2 °F 46.4 °F 93% 30.18 in 2.8 mi NW 12.7 mph - N/A Rain Rain
7:30 AM 48.2 °F 46.4 °F 93% 30.18 in 2.8 mi NW 13.8 mph - N/A Rain Rain
8:00 AM 48.2 °F 48.2 °F 100% 30.18 in 3.7 mi NW 12.7 mph - N/A Rain Light Rain
8:30 AM 50.0 °F 48.2 °F 94% 30.15 in 6.2 mi North 12.7 mph - N/A Rain Light Rain
9:00 AM 50.0 °F 48.2 °F 94% 30.15 in 6.2 mi WNW 12.7 mph - N/A Rain Light Rain
9:11 AM 50.0 °F 48.2 °F 94% 30.15 in 2.8 mi NW 12.7 mph - N/A Rain Light Rain
9:15 AM 50.0 °F 48.2 °F 94% 30.15 in 2.8 mi NW 13.8 mph - N/A Rain Rain
9:20 AM 50.0 °F 48.2 °F 94% 30.15 in 3.1 mi NW 15.0 mph - N/A Rain Light Rain
9:30 AM 50.0 °F 48.2 °F 94% 30.15 in 3.7 mi NNW 12.7 mph - N/A Rain Light Rain
10:00 AM 50.0 °F 48.2 °F 94% 30.12 in 5.0 mi NNW 16.1 mph - N/A Rain Light Rain
10:30 AM 50.0 °F 50.0 °F 100% 30.09 in 5.6 mi NNW 12.7 mph - N/A Rain Light Rain
11:00 AM 51.8 °F 48.2 °F 88% 30.06 in 6.2 mi North 13.8 mph - N/A Rain Light Rain
11:30 AM 51.8 °F 50.0 °F 94% 30.06 in 4.3 mi North 15.0 mph - N/A Rain Light Rain
12:00 PM 50.0 °F 48.2 °F 94% 30.04 in 4.3 mi NNW 12.7 mph - N/A Rain Light Rain
12:08 PM 50.0 °F 48.2 °F 94% 30.04 in 2.8 mi NNW 10.4 mph - N/A Rain Light Rain
12:30 PM 51.8 °F 50.0 °F 94% 30.01 in 5.0 mi North 10.4 mph - N/A Rain Light Rain
1:00 PM 51.8 °F 50.0 °F 94% 29.98 in 5.0 mi North 13.8 mph - N/A Rain Light Rain
1:30 PM 51.8 °F 48.2 °F 88% 29.98 in 6.2 mi North 13.8 mph - N/A Rain Light Rain
2:00 PM 51.8 °F 48.2 °F 88% 29.95 in 6.2 mi North 11.5 mph - N/A   Mostly Cloudy
2:12 PM 51.8 °F 48.2 °F 88% 29.95 in 6.2 mi North 11.5 mph - N/A   Mostly Cloudy
2:30 PM 51.8 °F 48.2 °F 88% 29.95 in 6.2 mi NNW 10.4 mph - N/A   Mostly Cloudy
3:00 PM 51.8 °F 48.2 °F 88% 29.92 in 6.2 mi North 13.8 mph - N/A   Mostly Cloudy
3:30 PM 51.8 °F 48.2 °F 88% 29.92 in 6.2 mi North 10.4 mph - N/A   Mostly Cloudy
4:00 PM 51.8 °F 48.2 °F 88% 29.89 in 6.2 mi North 11.5 mph - N/A Rain Light Rain
4:30 PM 51.8 °F 48.2 °F 88% 29.89 in 6.2 mi North 8.1 mph - N/A   Mostly Cloudy
5:00 PM 51.8 °F 48.2 °F 88% 29.86 in 6.2 mi North 8.1 mph - N/A Rain Light Rain Showers
5:30 PM 51.8 °F 48.2 °F 88% 29.86 in 6.2 mi NNE 5.8 mph - N/A   Mostly Cloudy
6:00 PM 51.8 °F 48.2 °F 88% 29.86 in 6.2 mi NE 6.9 mph - N/A   Mostly Cloudy
6:30 PM 51.8 °F 48.2 °F 88% 29.86 in 6.2 mi NNE 6.9 mph - N/A   Mostly Cloudy
7:00 PM 51.8 °F 48.2 °F 88% 29.86 in 6.2 mi NW 5.8 mph - N/A   Mostly Cloudy
7:16 PM 51.8 °F 48.2 °F 88% 29.86 in 6.2 mi NW 8.1 mph - N/A   Mostly Cloudy
7:30 PM 51.8 °F 50.0 °F 94% 29.86 in 6.2 mi NNW 8.1 mph - N/A   Mostly Cloudy
8:00 PM 53.6 °F 48.2 °F 82% 29.86 in 6.2 mi North 6.9 mph - N/A   Mostly Cloudy
8:30 PM 51.8 °F 50.0 °F 94% 29.86 in 6.2 mi NW 5.8 mph - N/A   Mostly Cloudy
8:42 PM 53.6 °F 50.0 °F 88% 29.86 in 6.2 mi NW 5.8 mph - N/A   Mostly Cloudy
9:00 PM 53.6 °F 50.0 °F 88% 29.83 in 6.2 mi Variable 1.2 mph - N/A   Mostly Cloudy
9:30 PM 53.6 °F 50.0 °F 88% 29.83 in 6.2 mi ENE 3.5 mph - N/A   Mostly Cloudy
10:00 PM 53.6 °F 50.0 °F 88% 29.83 in 6.2 mi ENE 4.6 mph - N/A   Mostly Cloudy
10:30 PM 53.6 °F 50.0 °F 88% 29.83 in 6.2 mi ESE 4.6 mph - N/A   Mostly Cloudy
11:00 PM 53.6 °F 50.0 °F 88% 29.80 in 6.2 mi ESE 3.5 mph - N/A   Mostly Cloudy
11:30 PM 53.6 °F 50.0 °F 88% 29.80 in 6.2 mi Variable 2.3 mph - N/A   Scattered Clouds